RH
94 95 90 87 84 83 82 83 86 87 86 83 78 81 82 84 83 84 83 82 82 79 77 73 77 80 76 77 78 82 83 84 84 84 85 84 82 78 81 82 82 73 74
89 94 91 87 86 85 85 87 88 88 87 85 84 82 82 83 83 83 82 80 79 79 77 77 78 76 78 80 81 82 84 86 88 90 89 89 85 81 80 84 84 76 74
85 89 88 87 87 87 87 89 89 88 88 86 85 83 82 82 83 84 83 81 81 81 77 74 74 75 77 80 82 81 83 85 88 91 92 93 86 82 80 82 82 79 75
85 87 87 88 87 86 88 91 89 87 88 87 87 86 85 83 83 83 83 82 84 82 81 82 82 82 82 85 84 80 83 86 89 91 94 87 77 79 79 78 75 71 76
84 88 88 90 88 88 89 91 90 88 87 88 89 88 87 85 83 82 83 86 86 86 87 85 84 85 84 83 84 81 83 87 91 90 95 94 88 74 74 74 75 78 78
84 90 92 90 90 90 91 91 88 86 86 90 91 90 87 86 84 85 89 90 89 89 87 84 84 85 85 84 82 83 86 88 91 96 96 89 82 72 74 73 77 78 78
88 94 93 90 91 90 91 91 87 85 90 91 90 89 88 87 86 89 92 91 90 89 87 84 84 84 85 85 81 84 88 92 95 96 96 94 80 71 72 70 74 77 78
90 94 89 91 92 91 91 91 91 90 91 91 90 89 88 89 90 90 91 90 89 88 87 85 86 85 85 84 83 86 89 90 92 97 96 95 82 74 72 71 76 78 78
90 92 92 92 94 94 94 94 92 92 92 93 92 91 91 93 92 91 90 89 89 88 89 89 88 88 86 86 89 92 95 95 97 98 94 97 84 72 72 74 77 78 78
91 93 94 93 95 96 96 97 97 96 96 95 95 96 97 95 94 92 92 91 89 88 87 84 84 85 88 90 92 94 96 97 98 97 97 93 80 70 73 75 76 78 79
91 93 95 92 89 92 93 98 98 97 97 98 99 99 99 97 96 94 96 92 88 89 90 90 89 91 94 95 96 97 94 93 95 100 98 88 80 72 74 77 77 77 80
91 92 87 88 84 86 92 97 98 98 97 98 98 97 97 94 90 94 97 95 94 94 92 90 90 91 94 99 94 92 93 91 93 96 99 89 80 77 75 75 76 76 80
87 89 86 87 85 85 90 93 94 97 97 97 97 95 96 96 94 97 97 92 91 92 88 88 89 91 96 95 88 88 88 90 96 95 96 90 81 78 77 76 75 75 76
92 89 87 88 87 84 88 90 93 96 95 96 93 95 94 97 98 96 92 87 84 85 92 90 90 91 93 89 85 85 83 85 88 93 95 98 86 78 75 74 75 74 74
94 91 92 89 86 84 89 88 92 94 92 93 94 91 92 96 96 95 91 85 85 90 87 90 91 92 93 91 87 84 82 81 83 86 96 97 96 86 78 74 74 74 72
91 92 91 90 87 85 87 88 91 90 92 94 94 93 91 92 94 91 88 87 93 88 86 88 89 89 91 88 87 83 79 87 86 84 87 96 96 97 84 75 71 74 75
89 89 92 90 87 85 88 89 92 91 94 96 95 92 90 92 91 90 88 89 92 86 85 85 85 86 89 85 87 77 77 78 82 85 85 88 96 97 94 83 78 82 80
88 91 91 88 88 86 90 92 94 94 95 96 94 92 92 92 87 88 87 92 88 85 86 87 88 92 93 91 92 89 85 82 84 86 85 87 93 99 96 91 88 87 87
89 90 95 90 90 87 90 94 94 94 95 96 94 94 92 91 88 88 92 93 87 88 88 85 92 91 92 90 87 85 86 89 90 88 89 88 91 99 100 98 95 95 94
93 92 90 90 91 88 93 97 97 97 97 97 97 94 91 90 88 90 93 92 87 88 90 89 89 89 87 84 78 82 84 87 90 93 92 91 90 96 99 99 99 99 93
99 98 96 93 93 96 97 98 98 98 98 98 97 94 91 87 86 88 90 92 88 87 88 86 86 88 90 87 91 91 90 86 90 93 92 94 92 92 94 97 96 94 90
88 95 98 94 95 95 93 94 92 96 97 97 96 94 89 85 86 86 88 87 88 90 88 85 85 94 92 87 96 94 100 94 88 89 94 93 88 88 90 92 90 89 93
90 93 96 96 94 94 94 95 97 97 98 99 99 98 93 86 86 86 87 88 89 86 87 85 87 92 94 90 87 95 99 99 97 90 93 94 85 93 88 88 90 87 86
86 88 90 97 94 96 97 98 96 96 96 94 96 94 94 88 87 86 86 86 86 85 87 86 84 89 87 94 94 91 92 93 98 99 90 94 90 87 86 89 91 92 91
82 88 91 94 95 91 97 97 98 97 95 93 96 96 96 92 87 86 84 84 84 83 86 84 87 96 87 88 95 94 94 95 95 98 100 98 89 86 85 84 86 94 91
81 85 88 90 95 95 96 96 96 97 98 99 98 98 98 95 92 89 86 86 82 83 84 85 85 91 89 90 94 90 89 93 95 97 94 94 95 86 84 83 85 86 87
Wind_Speed
8 10 17 20 20 18 18 17 16 16 16 17 19 19 19 18 17 16 17 16 16 18 20 20 21 21 22 22 22 21 20 20 18 18 17 18 19 20 20 20 16 15 21
14 13 20 20 19 18 17 16 15 15 15 16 17 18 19 18 17 15 17 17 16 18 18 20 21 21 22 21 21 21 21 19 18 16 16 14 15 18 19 19 17 17 21
18 14 18 21 19 18 17 16 15 16 15 16 16 17 18 18 17 18 17 17 17 19 20 20 21 20 20 20 19 19 19 18 16 15 12 6 10 18 19 17 18 20 21
18 14 16 20 20 19 18 17 16 17 16 16 15 16 17 18 18 18 17 18 18 19 19 19 19 18 17 17 17 19 18 16 14 11 6 6 10 20 19 19 19 19 19
17 13 15 20 19 19 18 17 17 16 17 15 15 15 16 18 19 19 18 18 17 18 18 17 15 15 15 15 16 18 17 15 12 9 6 6 5 16 19 18 17 17 17
17 14 18 21 20 19 19 18 17 18 17 15 15 16 16 17 19 19 18 17 16 18 16 15 13 13 16 15 16 17 16 14 10 7 6 7 8 18 19 18 17 17 17
16 13 16 20 19 19 18 18 16 17 17 16 16 16 16 17 18 19 18 18 17 17 15 14 12 14 16 15 16 16 15 12 7 6 5 5 8 19 19 18 17 17 17
18 15 17 18 18 18 18 17 16 16 16 16 16 16 16 18 19 19 19 18 18 16 16 16 15 18 17 17 17 15 12 10 7 6 5 5 13 19 18 18 17 17 18
15 14 15 15 14 15 14 14 17 16 16 15 15 16 16 17 19 19 18 19 18 18 17 17 18 18 18 17 17 16 14 12 6 4 5 3 13 19 18 17 18 17 17
15 13 13 13 12 11 10 12 12 14 12 13 13 13 14 15 18 18 17 19 19 18 17 19 19 20 19 17 16 16 15 12 6 5 4 5 14 19 18 18 18 18 17
12 13 11 14 13 12 11 9 11 13 13 12 11 13 10 7 11 12 13 17 18 17 18 18 19 20 19 17 16 15 14 5 6 4 3 12 15 19 18 18 17 17 17
17 15 13 13 14 14 9 9 9 8 7 7 9 9 7 10 10 10 12 16 19 17 17 17 18 16 12 6 5 10 5 6 5 5 3 10 17 17 18 17 17 16 16
16 11 14 13 14 14 10 8 6 5 5 6 10 9 8 8 9 7 7 7 8 9 6 7 7 6 7 6 6 5 6 5 3 3 8 6 14 16 18 16 16 16 16
18 16 15 14 14 13 8 7 7 6 6 6 8 10 9 7 7 7 6 7 6 5 6 6 6 7 9 8 7 7 7 5 4 3 6 14 10 15 16 16 16 16 17
17 14 14 15 15 12 11 8 8 8 8 8 9 10 8 8 8 6 7 6 6 5 6 7 7 7 8 8 7 7 7 7 6 3 3 13 11 12 14 16 15 17 18
18 18 15 17 15 13 10 11 8 8 9 9 8 9 10 8 8 7 8 7 6 6 6 7 7 7 7 6 7 6 7 5 6 6 4 5 12 9 10 15 16 16 17
16 19 20 19 16 15 13 10 8 8 9 8 8 10 10 9 10 9 8 7 6 6 10 9 8 8 7 6 7 7 6 6 6 6 5 4 5 8 3 12 15 15 18
15 17 18 14 16 16 13 10 8 9 8 8 8 9 11 11 11 10 8 8 7 7 8 8 7 7 6 6 5 5 5 5 6 6 5 4 4 3 1 11 15 16 19
19 18 17 16 17 18 13 9 9 12 8 8 9 8 12 11 12 10 8 7 9 7 7 8 5 6 7 6 7 6 6 5 6 5 6 6 6 4 2 9 10 16 20
14 15 18 16 17 16 11 8 7 8 7 7 8 9 12 10 13 11 9 9 8 8 7 7 9 5 6 8 9 7 5 5 5 6 5 5 6 5 7 5 5 9 16
6 11 12 14 13 10 10 11 9 11 10 9 9 12 13 12 14 13 10 10 8 9 10 10 9 12 5 7 7 6 6 7 7 6 5 5 6 6 7 5 5 6 8
14 14 8 14 11 11 10 10 10 11 11 8 8 12 14 14 14 13 13 12 11 9 11 12 12 6 3 6 4 4 3 2 4 6 6 6 7 4 6 7 6 6 4
17 17 14 7 12 12 11 8 3 6 5 5 8 9 12 15 15 14 14 12 11 10 10 12 11 9 9 4 7 5 4 3 2 3 5 5 6 5 4 5 6 5 5
17 15 15 14 10 9 9 8 9 9 12 9 12 11 11 14 15 15 15 14 14 10 11 11 11 8 10 9 2 1 2 5 5 3 1 3 5 4 4 3 4 5 5
15 14 13 13 9 12 9 9 8 9 9 8 10 14 14 12 15 16 16 15 14 11 12 13 13 7 9 8 6 4 2 3 4 4 3 2 1 2 2 2 2 3 3
14 15 14 14 12 9 10 12 13 12 10 8 9 10 10 10 11 14 16 15 14 13 15 13 12 11 10 8 4 4 7 6 5 5 5 2 1 3 1 2 0 1 1
Wind_Direction
201 182 167 156 154 151 147 143 137 133 131 128 130 126 124 122 120 119 116 116 115 116 110 110 107 105 105 103 99 92 90 90 92 92 89 89 90 91 87 86 85 87 85
148 168 163 157 155 153 152 146 141 135 133 130 131 129 127 126 125 124 122 123 123 115 115 109 107 108 105 103 101 99 96 92 84 81 82 86 90 94 91 91 90 95 90
152 162 157 157 157 156 153 146 142 138 137 132 131 130 130 128 124 122 124 121 117 110 111 112 109 105 102 102 101 100 98 94 88 82 79 82 92 96 97 92 93 91 92
150 157 156 158 159 157 151 148 146 144 140 136 134 133 132 131 127 122 121 120 114 113 113 111 110 106 104 103 103 104 101 92 83 74 70 83 98 100 98 98 93 93 93
151 158 157 159 160 155 153 151 150 149 142 141 139 135 136 137 132 128 124 118 115 111 110 111 110 109 112 108 107 109 103 95 83 80 80 88 92 97 96 91 89 89 92
152 154 158 158 161 157 155 153 156 151 145 140 136 135 137 135 132 131 123 120 114 110 111 110 108 104 112 113 112 106 102 91 78 72 72 86 90 106 101 97 96 97 95
155 149 156 160 159 157 156 155 157 153 143 142 138 136 137 134 133 130 123 117 112 109 108 106 110 116 110 110 109 106 96 83 79 70 73 83 113 109 103 101 99 99 96
154 153 156 160 156 158 156 157 155 149 144 141 139 137 139 137 133 128 122 117 115 113 105 103 105 111 106 105 104 97 82 78 74 79 81 89 117 109 107 107 102 100 101
152 155 152 157 152 155 156 151 151 145 143 141 138 137 137 137 132 128 125 120 116 110 105 103 103 103 105 106 98 87 74 66 66 60 75 88 121 112 111 109 104 103 100
154 155 149 151 152 152 155 146 144 139 137 136 133 134 134 140 132 128 124 118 115 108 112 114 114 111 104 94 88 81 70 56 55 66 65 110 123 114 113 110 107 105 105
160 157 148 153 158 156 156 149 138 138 137 127 118 120 116 121 119 119 120 118 115 112 106 105 107 104 94 84 79 80 81 72 66 33 44 120 121 118 115 110 109 108 105
168 167 160 157 164 165 154 153 148 144 139 132 134 131 122 127 125 119 112 109 104 104 107 108 102 93 80 70 67 63 61 56 51 33 6 123 122 122 119 117 117 115 111
168 165 167 161 163 168 159 157 154 139 136 136 137 132 123 121 124 121 118 109 107 99 88 85 80 66 71 75 69 64 62 55 48 38 21 111 128 126 123 122 122 123 120
169 170 167 165 163 169 158 159 151 144 145 147 140 133 136 135 133 129 124 116 109 102 97 87 85 82 75 70 67 62 52 50 37 31 23 17 135 133 131 130 129 127 125
162 163 170 170 169 165 161 157 154 152 155 152 147 150 146 142 138 122 121 115 112 108 109 101 95 89 81 74 61 64 53 42 31 26 24 19 27 137 137 136 138 133 129
167 163 169 176 171 165 167 157 164 158 156 152 157 153 150 143 136 131 124 120 111 113 107 105 104 96 82 80 67 58 60 44 36 25 18 5 12 9 155 149 147 139 134
179 163 170 175 171 170 166 160 162 155 156 158 155 154 151 144 139 137 130 126 123 113 111 104 95 90 87 78 65 57 55 40 39 31 20 7 351 349 317 157 139 135 133
169 172 168 172 176 170 164 170 156 157 163 158 155 156 149 147 141 137 134 131 130 125 119 116 117 99 89 81 75 53 46 38 39 30 22 11 351 326 280 127 131 135 133
170 169 165 172 179 176 163 169 156 159 169 164 158 159 153 149 146 139 138 140 135 128 120 127 112 112 111 95 85 64 47 36 32 30 19 13 360 350 101 129 132 132 128
170 172 169 173 180 177 166 148 147 152 161 165 164 169 159 155 151 140 140 143 138 134 128 124 119 98 116 114 92 70 51 44 33 24 15 10 2 22 54 69 139 117 119
318 168 169 168 183 173 174 161 164 170 170 174 170 166 165 159 157 153 151 153 148 151 147 139 125 125 112 137 105 87 61 52 42 21 10 11 9 27 53 54 79 103 108
351 343 153 178 175 188 178 188 177 182 177 172 165 167 167 162 163 158 159 161 153 145 148 152 151 146 120 198 122 114 111 48 34 20 7 6 2 25 49 55 61 70 74
359 350 339 206 172 197 177 178 161 178 162 152 165 173 179 166 165 164 163 165 157 161 165 166 165 156 158 201 198 132 145 164 140 9 9 359 359 27 28 53 55 68 81
353 344 336 326 175 198 167 180 170 197 182 181 181 180 176 173 170 168 168 170 170 163 172 177 178 174 162 170 114 230 16 140 155 147 7 357 2 16 19 35 70 66 81
353 348 339 332 229 195 192 176 181 196 209 198 186 175 175 175 176 173 172 171 175 173 173 183 182 182 177 168 161 150 126 68 74 133 137 186 316 354 8 14 74 100 82
356 353 348 348 338 210 190 191 187 192 207 188 180 182 179 179 178 179 177 178 179 178 178 184 188 189 183 183 160 172 170 158 170 147 119 128 160 219 268 289 225 151 134